ONEWEB-0115

Last updated on April 25, 2021, 12:02 a.m. UTC

1 48042U 21025A   21114.58336806 -.01078679  00000-0 -42822-1 0  9995
2 48042  87.4237 339.3313 0007838 149.3081 186.4600 15.28246332  1808
UTC
Height (km)
Latitude
Longitude
Inclination
Orbital Period
UTC large
Height (km)
Speed (km/s)
/
Latitude / Longitude
Inclination (degrees)
Orbital Period (minutes)
Azimuth
Elevation
Range (km)
Doppler Factor
iOS Compass Heading
iOS Angle

Next 30 passes for location: Hong Kong

Rise time Rise Azimuth (degrees) Set time Set Azimuth (degrees) Duration Max altitude (degrees)

No matching passes for this satellites